Weather History for Atwater, CA

Change the Weather History Date:

Thursday, October 31, 2013

  Actual Average (KMCE) Record (KMCE)
Temperature  
Mean Temperature 55 °F 58 °F  
Max Temperature 73 °F 72 °F 81 °F (2011)
Min Temperature 37 °F 45 °F 38 °F (2003)
Degree Days  
Heating Degree Days 10    
Month to date heating degree days  
Since 1 July heating degree days  
Cooling Degree Days 0    
Month to date cooling degree days  
Year to date cooling degree days  
Growing Degree Days 5 (Base 50)    
Moisture  
Dew Point 43 °F    
Average Humidity 85    
Maximum Humidity 100    
Minimum Humidity 29    
Precipitation  
Precipitation 0.00 in 0.06 in 0.64 in (2014)
Month to date precipitation 0.81  
Year to date precipitation 9.80  
Since 1 July precipitation 1.12  
Snow  
Snow 0.00 in - - ()
Month to date snowfall  
Since 1 July snowfall  
Since 1 September snowfall  
Snow Depth -    
Sea Level Pressure  
Sea Level Pressure 30.13 in    
Wind  
Wind Speed 2 mph (NW)    
Max Wind Speed 6 mph    
Max Gust Speed -    
Visibility 10 miles    
Events      
T = Trace of Precipitation, MM = Missing Value Source: NWS Daily Summary

Daily Weather History Graph

Daily Weather History Graph

Search for Another Location

Airport:

Trip Planner

Search our weather history database for the weather conditions in past years. The results will help you decide how hot, cold, wet, or windy it might be!

Date:

Astronomy

Oct. 31, 2013 Rise Set
Actual Time 7:26 AM PDT 6:04 PM PDT
Civil Twilight 6:59 AM PDT 6:31 PM PDT
Nautical Twilight 6:28 AM PDT 7:02 PM PDT
Astronomical Twilight 5:58 AM PDT 7:33 PM PDT
Moon 4:24 AM PDT (10/31) 4:23 PM PDT (10/31)
Length of Visible Light 11h 32m
Length of Day
10h 38m
Waning Crescent, 9% of the Moon is Illuminated
Oct 31
Waning Crescent
Nov 3
New
Nov 9
First Quarter
Nov 17
Full
Nov 25
Last Quarter

Hourly Weather History & Observations

Time (PDT) Temp. Windchill Dew Point Humidity Pressure Visibility Wind Dir Wind Speed Gust Speed Precip Events Conditions
12:15 AM 50.0 °F - 50.0 °F 100% 30.11 in 10.0 mi NNW 5.8 mph - N/A   Clear
12:35 AM 48.2 °F - 48.2 °F 100% 30.11 in 10.0 mi NNW 3.5 mph - N/A   Clear
12:55 AM 44.6 °F - 44.6 °F 100% 30.12 in 10.0 mi North - - N/A   Clear
1:15 AM 42.8 °F - 42.8 °F 100% 30.12 in 10.0 mi Calm Calm - N/A   Clear
1:35 AM 44.6 °F - 44.6 °F 100% 30.12 in 10.0 mi Calm Calm - N/A   Clear
1:55 AM 42.8 °F - 42.8 °F 100% 30.13 in 10.0 mi Calm Calm - N/A   Clear
2:15 AM 42.8 °F - 42.8 °F 100% 30.13 in 9.0 mi Calm Calm - N/A   Clear
2:35 AM 41.0 °F - 41.0 °F 100% 30.13 in 9.0 mi Calm Calm - N/A   Clear
2:55 AM 42.8 °F - 42.8 °F 100% 30.13 in 10.0 mi Calm Calm - N/A   Clear
3:15 AM 42.8 °F - 42.8 °F 100% 30.13 in 10.0 mi Calm Calm - N/A   Clear
3:35 AM 41.0 °F - 41.0 °F 100% 30.13 in 10.0 mi Calm Calm - N/A   Clear
3:55 AM 41.0 °F - 41.0 °F 100% 30.13 in 9.0 mi Calm Calm - N/A   Clear
4:15 AM 41.0 °F - 41.0 °F 100% 30.13 in 10.0 mi Calm Calm - N/A   Clear
4:35 AM 39.2 °F - 39.2 °F 100% 30.13 in 7.0 mi Calm Calm - N/A   Clear
4:55 AM 39.2 °F - 39.2 °F 100% 30.13 in 7.0 mi Calm Calm - N/A   Clear
5:15 AM 37.4 °F 34.9 °F 37.4 °F 100% 30.13 in 9.0 mi SE 3.5 mph - N/A   Clear
5:35 AM 37.4 °F - 37.4 °F 100% 30.14 in 8.0 mi Calm Calm - N/A   Clear
5:55 AM 39.2 °F - 39.2 °F 100% 30.15 in 10.0 mi Calm Calm - N/A   Clear
6:15 AM 37.4 °F - 37.4 °F 100% 30.15 in 10.0 mi Calm Calm - N/A   Clear
6:35 AM 39.2 °F - 39.2 °F 100% 30.15 in 10.0 mi Calm Calm - N/A   Clear
6:45 AM 37.4 °F - 37.4 °F 100% 30.15 in 7.0 mi Calm Calm - N/A   Clear
6:55 AM 37.4 °F - 37.4 °F 100% 30.16 in 10.0 mi Calm Calm - N/A   Clear
7:45 AM 37.4 °F - 37.4 °F 100% 30.17 in 7.0 mi Calm Calm - N/A   Clear
8:45 AM 48.2 °F - 48.2 °F 100% 30.18 in 7.0 mi Calm Calm - N/A   Clear
9:45 AM 53.6 °F - 46.4 °F 77% 30.19 in 7.0 mi Calm Calm - N/A   Clear
10:47 AM 60.8 °F - 44.6 °F 55% 30.18 in 10.0 mi Calm Calm - N/A   Clear
11:45 AM 64.4 °F - 42.8 °F 45% 30.18 in 10.0 mi Calm Calm - N/A   Clear
12:45 PM 69.8 °F - 41.0 °F 35% 30.15 in 10.0 mi Variable 4.6 mph - N/A   Clear
1:45 PM 71.6 °F - 39.2 °F 31% 30.13 in 10.0 mi Variable 4.6 mph - N/A   Clear
2:55 PM 73.4 °F - 39.2 °F 29% 30.10 in 10.0 mi WNW 5.8 mph - N/A   Clear
3:45 PM 73.4 °F - 39.2 °F 29% 30.09 in 10.0 mi Variable 4.6 mph - N/A   Clear
4:45 PM 71.6 °F - 39.2 °F 31% 30.08 in 10.0 mi Variable 4.6 mph - N/A   Clear
5:45 PM 68.0 °F - 39.2 °F 35% 30.07 in 10.0 mi NW 5.8 mph - N/A   Clear
6:45 PM 62.6 °F - 42.8 °F 48% 30.08 in 10.0 mi NW 5.8 mph - N/A   Clear
7:45 PM 55.4 °F - 44.6 °F 67% 30.09 in 10.0 mi NNW 5.8 mph - N/A   Clear
8:45 PM 51.8 °F - 48.2 °F 88% 30.10 in 10.0 mi NNW 5.8 mph - N/A   Clear
9:15 PM 51.8 °F - 48.2 °F 88% 30.10 in 10.0 mi Calm Calm - N/A   Clear
9:35 PM 51.8 °F - 50.0 °F 94% 30.10 in 10.0 mi Calm Calm - N/A   Clear
9:55 PM 48.2 °F - 48.2 °F 100% 30.11 in 10.0 mi Calm Calm - N/A   Clear
10:15 PM 48.2 °F - 48.2 °F 100% 30.11 in 10.0 mi Calm Calm - N/A   Clear
10:35 PM 48.2 °F - 46.4 °F 93% 30.11 in 10.0 mi Calm Calm - N/A   Clear
10:55 PM 48.2 °F - 48.2 °F 100% 30.11 in 10.0 mi Calm Calm - N/A   Clear
11:15 PM 46.4 °F - 46.4 °F 100% 30.12 in 10.0 mi Calm Calm - N/A   Clear
11:35 PM 46.4 °F - 46.4 °F 100% 30.12 in 10.0 mi Calm Calm - N/A   Clear
11:55 PM 44.6 °F - 44.6 °F 100% 30.12 in 10.0 mi Calm Calm - N/A   Clear